TJMZTNCM

Guest
Details From TJMZ - Mayaguez/Eugenio Maria De Hostos
To TNCM - St Maarten - Princess Juliana Intl
Flight Number -
Tags decoded
Created
Modified
Stats Distance 233 nm / 432 km
Max Altitude 0 ft / 0 m
Waypoints 6
Social Downloads 3
Likes 0
Share VATSIM

Download

Looking for another format? Having issues loading an existing format? Contact us
Advertisement - Login to hide

Notes

Requested: TJMZ CHAKA PALCO STT PASIC OTMUT AVAKI LESOR MAPON RWY10 TNCM Unmatched points: OTMUT AVAKI LESOR MAPON RWY10

Route

TJMZ CHAKA PALCO STT PASIC TNCM

ID Type Via Altitude Latitude Longitude Leg Dist Tot Dist Heading (true) Name
O TJMZ APT - 0 ft / 0 m 18.25564˚ -67.14845˚ - 0 nm - Mayaguez/Eugenio Maria De Hostos
CHAKA FIX - 0 ft / 0 m 18.37288˚ -65.62953˚ 86 nm 86 nm 85° / 86° -
PALCO FIX - 0 ft / 0 m 18.29171˚ -65.23562˚ 22 nm 109 nm 102° / 102° -
STT VOR - 0 ft / 0 m 18.35581˚ -65.02456˚ 12 nm 122 nm 72° / 72° ST THOMAS VOR-DME
PASIC FIX - 0 ft / 0 m 18.29481˚ -64.65002˚ 21 nm 144 nm 100° / 100° -
O TNCM APT - 0 ft / 0 m 18.04089˚ -63.10897˚ 89 nm 233 nm 100° / 100° St Maarten - Princess Juliana Intl

Altitude Profile

Advertisement - Login to hide

Weather


0- 5 10 15 20 25 30 35+ Temperature / ° C

Clouds and Precipitation
Forecast for 2018-05-26 06:00 UTC. Updated 5 hours ago

Ground ~20,000 ft ~40,000 ft Winds

TJMZ

Details ICAO TJMZ (MAZ)
Name Mayaguez/Eugenio Maria De Hostos
Region USA (Puerto Rico)
Timezone America/Puerto_Rico (UTC-4.0)
Stats Elevation 28 ft / 9 m (AMSL)
Location 18.255644° -67.148451°
Runways 1
Magnetic Variation 12.737° W

METAR

Not found

TAF

TAF TAF TJMZ 260520Z 2606/2706 08006KT P6SM FEW030 FM261400 VRB05KT P6SM FEW025 SCT040 FM261700 28011KT P6SM VCTS SCT025CB BKN040 AMD NOT SKED

Decode

Departure Runways

ID Width Length Bearing (true) Bearing (mag) Surface Threshold Offset Overrun Length
09 98 ft / 30 m 4,995 ft / 1,522 m 76.40° 89.14° Asphalt 0 ft / 0 m 0 ft / 0 m
27 98 ft / 30 m 4,995 ft / 1,522 m 256.41° 269.15° Asphalt 0 ft / 0 m 0 ft / 0 m

TNCM

Details ICAO TNCM (SXM)
Name St Maarten - Princess Juliana Intl
Region Caribbean Netherlands, Aruba, Curaçao, Sint Maarten
Timezone Unknown (UTC+0.0)
Stats Elevation 12 ft / 4 m (AMSL)
Location 18.040889° -63.108974°
Runways 1
Magnetic Variation 14.337° W

METAR

TNCM 261000Z 10009KT 060V140 9999 FEW018 26/21 Q1016 A3002 NOSIG

Decode

TAF

TAF TNCM 260520Z 2606/2706 08010KT P6SM FEW018 FM261400 11014KT P6SM SCT022

Decode

Destination Runways

ID Width Length Bearing (true) Bearing (mag) Surface Threshold Offset Overrun Length
10 148 ft / 45 m 7,464 ft / 2,275 m 81.43° 95.77° Asphalt 0 ft / 0 m 151 ft / 46 m
28 148 ft / 45 m 7,464 ft / 2,275 m 261.44° 275.78° Asphalt 397 ft / 121 m 0 ft / 0 m

Popular Alternatives